SKW5627 KRNO-KSFO

Flight info

Callsign SKW5627
Flight time 0h 48m
Altitude 30000
Route ZEFFR9 MRLET LEGGS BDEGA4
Aircraft E75L/M-SDE3GILORVW/S

Departure

Time 2026-05-03 22:33
Airport Reno Tahoe International Airport (KRNO)

Arrival

Time 2026-05-03 23:21
Airport San Francisco International Airport (KSFO)
Time Latitude Longitude Altitude Speed Heading
2026-05-03 22:19 39.50688 -119.77219 4501 ft 0 kts 282°
2026-05-03 22:27 39.50686 -119.77208 4483 ft 4 kts 284°
2026-05-03 22:27 39.50679 -119.77175 4472 ft 4 kts 295°
2026-05-03 22:28 39.50662 -119.77152 4476 ft 4 kts 347°
2026-05-03 22:28 39.50650 -119.77151 4474 ft 1 kts
2026-05-03 22:28 39.50649 -119.77151 4474 ft 0 kts
2026-05-03 22:30 39.50652 -119.77151 4476 ft 2 kts
2026-05-03 22:30 39.50686 -119.77150 4469 ft 8 kts
2026-05-03 22:30 39.50759 -119.77150 4467 ft 13 kts
2026-05-03 22:30 39.50867 -119.77150 4469 ft 17 kts 359°
2026-05-03 22:31 39.50996 -119.77150 4464 ft 19 kts 359°
2026-05-03 22:31 39.51098 -119.77094 4465 ft 15 kts 75°
2026-05-03 22:31 39.51102 -119.76959 4466 ft 16 kts 90°
2026-05-03 22:31 39.51101 -119.76808 4464 ft 18 kts 90°
2026-05-03 22:32 39.51068 -119.76689 4467 ft 11 kts 158°
2026-05-03 22:32 39.50845 -119.76675 4462 ft 67 kts 178°
2026-05-03 22:32 39.50135 -119.76672 4461 ft 136 kts 180°
2026-05-03 22:32 39.49009 -119.76692 4784 ft 171 kts 179°
2026-05-03 22:33 39.47789 -119.76706 5713 ft 176 kts 180°
2026-05-03 22:33 39.46462 -119.76771 6066 ft 220 kts 184°
2026-05-03 22:33 39.44853 -119.76914 6599 ft 231 kts 181°
2026-05-03 22:33 39.43258 -119.76948 7505 ft 235 kts 178°
2026-05-03 22:34 39.41522 -119.76943 8007 ft 255 kts 179°
2026-05-03 22:34 39.39694 -119.76945 8562 ft 270 kts 179°
2026-05-03 22:34 39.37773 -119.76953 9160 ft 279 kts 179°
2026-05-03 22:34 39.35831 -119.76958 9913 ft 281 kts 179°
2026-05-03 22:35 39.33813 -119.77036 10464 ft 294 kts 182°
2026-05-03 22:35 39.31724 -119.77236 10901 ft 306 kts 185°
2026-05-03 22:35 39.29621 -119.77697 11618 ft 308 kts 190°
2026-05-03 22:35 39.27523 -119.78273 12344 ft 311 kts 191°
2026-05-03 22:36 39.25363 -119.78884 13068 ft 314 kts 191°
2026-05-03 22:36 39.23229 -119.79501 13792 ft 317 kts 191°
2026-05-03 22:36 39.21039 -119.80134 14457 ft 320 kts 191°
2026-05-03 22:36 39.19603 -119.80547 14903 ft 322 kts 191°
2026-05-03 22:37 39.17388 -119.81184 15606 ft 325 kts 191°
2026-05-03 22:37 39.15174 -119.82234 16309 ft 332 kts 211°
2026-05-03 22:37 39.13546 -119.84363 16978 ft 343 kts 235°
2026-05-03 22:37 39.12734 -119.87284 17659 ft 355 kts 260°
2026-05-03 22:38 39.12906 -119.90480 18368 ft 364 kts 280°
2026-05-03 22:38 39.13607 -119.93631 18969 ft 368 kts 284°
2026-05-03 22:38 39.14396 -119.96782 19623 ft 371 kts 285°
2026-05-03 22:38 39.15202 -119.99952 20343 ft 374 kts 285°
2026-05-03 22:39 39.16017 -120.03156 21020 ft 377 kts 285°
2026-05-03 22:39 39.16730 -120.06419 21653 ft 379 kts 279°
2026-05-03 22:39 39.17320 -120.09742 22269 ft 382 kts 279°
2026-05-03 22:39 39.17892 -120.13108 22872 ft 385 kts 278°
2026-05-03 22:40 39.18460 -120.16502 23475 ft 388 kts 278°
2026-05-03 22:40 39.19030 -120.19919 24006 ft 391 kts 278°
2026-05-03 22:40 39.19602 -120.23352 24514 ft 394 kts 278°
2026-05-03 22:40 39.20179 -120.26819 25016 ft 397 kts 278°
2026-05-03 22:41 39.20760 -120.30301 25559 ft 399 kts 278°
2026-05-03 22:41 39.21342 -120.33806 26093 ft 401 kts 278°
2026-05-03 22:41 39.21927 -120.37343 26582 ft 404 kts 278°
2026-05-03 22:41 39.22517 -120.40903 27054 ft 407 kts 278°
2026-05-03 22:42 39.23109 -120.44479 27489 ft 409 kts 278°
2026-05-03 22:42 39.23701 -120.48073 27939 ft 413 kts 278°
2026-05-03 22:42 39.24330 -120.51892 28413 ft 416 kts 278°
2026-05-03 22:42 39.24934 -120.55563 28836 ft 419 kts 278°
2026-05-03 22:43 39.25538 -120.59251 29251 ft 422 kts 278°
2026-05-03 22:43 39.26137 -120.62914 29628 ft 424 kts 278°
2026-05-03 22:43 39.26751 -120.66670 29859 ft 431 kts 279°
2026-05-03 22:43 39.27372 -120.70482 29996 ft 431 kts 279°
2026-05-03 22:44 39.27997 -120.74328 30082 ft 435 kts 278°
2026-05-03 22:44 39.29248 -120.82049 30138 ft 442 kts 278°
2026-05-03 22:45 39.30503 -120.89832 30075 ft 442 kts 278°
2026-05-03 22:45 39.31752 -120.97611 30107 ft 443 kts 278°
2026-05-03 22:46 39.32974 -121.05429 30087 ft 440 kts 275°
2026-05-03 22:46 39.32824 -121.13406 30062 ft 430 kts 254°
2026-05-03 22:47 39.31102 -121.19425 30068 ft 421 kts 237°
2026-05-03 22:47 39.27543 -121.25302 30054 ft 415 kts 224°
2026-05-03 22:48 39.23538 -121.30714 30031 ft 414 kts 224°
2026-05-03 22:48 39.19546 -121.36227 30038 ft 414 kts 224°
2026-05-03 22:49 39.15650 -121.41683 30006 ft 413 kts 225°
2026-05-03 22:49 39.11818 -121.47205 30023 ft 414 kts 229°
2026-05-03 22:50 39.08305 -121.53103 30021 ft 413 kts 230°
2026-05-03 22:50 39.04796 -121.59085 30033 ft 414 kts 230°
2026-05-03 22:50 39.03055 -121.62049 29716 ft 416 kts 230°
2026-05-03 22:51 39.01334 -121.64977 29094 ft 408 kts 230°
2026-05-03 22:51 38.99648 -121.67842 28488 ft 401 kts 230°
2026-05-03 22:51 38.97871 -121.70855 27863 ft 398 kts 230°
2026-05-03 22:51 38.96179 -121.73724 27308 ft 396 kts 230°
2026-05-03 22:52 38.94516 -121.76541 26902 ft 394 kts 230°
2026-05-03 22:52 38.92821 -121.79409 26490 ft 392 kts 230°
2026-05-03 22:52 38.91199 -121.82153 26103 ft 390 kts 230°
2026-05-03 22:52 38.89562 -121.84917 25714 ft 387 kts 230°
2026-05-03 22:53 38.87940 -121.87655 25327 ft 384 kts 230°
2026-05-03 22:53 38.86325 -121.90377 24944 ft 382 kts 230°
2026-05-03 22:53 38.84718 -121.93086 24570 ft 380 kts 230°
2026-05-03 22:53 38.83118 -121.95780 24203 ft 378 kts 230°
2026-05-03 22:54 38.81526 -121.98457 23837 ft 376 kts 230°
2026-05-03 22:54 38.79944 -122.01116 23459 ft 373 kts 230°
2026-05-03 22:54 38.78376 -122.03750 23027 ft 371 kts 230°
2026-05-03 22:54 38.76813 -122.06372 22601 ft 369 kts 229°
2026-05-03 22:55 38.75258 -122.08979 22175 ft 365 kts 230°
2026-05-03 22:55 38.73698 -122.11594 21752 ft 364 kts 229°
2026-05-03 22:55 38.72184 -122.14126 21349 ft 361 kts 229°
2026-05-03 22:55 38.70641 -122.16708 20937 ft 359 kts 229°
2026-05-03 22:56 38.69129 -122.19234 20525 ft 356 kts 229°
2026-05-03 22:56 38.67625 -122.21747 20120 ft 355 kts 229°
2026-05-03 22:56 38.66128 -122.24244 19730 ft 353 kts 229°
2026-05-03 22:56 38.64636 -122.26732 19278 ft 352 kts 229°
2026-05-03 22:57 38.63156 -122.29200 18838 ft 349 kts 229°
2026-05-03 22:57 38.61697 -122.31629 18420 ft 347 kts 229°
2026-05-03 22:57 38.60210 -122.34101 17931 ft 345 kts 229°
2026-05-03 22:57 38.58773 -122.36488 17446 ft 343 kts 229°
2026-05-03 22:58 38.57322 -122.38900 16947 ft 341 kts 229°
2026-05-03 22:58 38.55820 -122.41226 16466 ft 336 kts 225°
2026-05-03 22:58 38.54203 -122.43423 15999 ft 334 kts 223°
2026-05-03 22:58 38.52581 -122.45524 15546 ft 332 kts 221°
2026-05-03 22:59 38.50873 -122.47479 15092 ft 329 kts 217°
2026-05-03 22:59 38.49116 -122.49332 14639 ft 327 kts 216°
2026-05-03 22:59 38.47361 -122.51151 14292 ft 323 kts 216°
2026-05-03 22:59 38.45593 -122.52973 13973 ft 324 kts 216°
2026-05-03 23:00 38.43834 -122.54788 13665 ft 324 kts 216°
2026-05-03 23:00 38.42086 -122.56591 13310 ft 322 kts 216°
2026-05-03 23:00 38.40322 -122.58407 12949 ft 321 kts 216°
2026-05-03 23:00 38.39175 -122.59589 12713 ft 319 kts 216°
2026-05-03 23:01 38.37454 -122.61359 12365 ft 318 kts 216°
2026-05-03 23:01 38.35734 -122.63130 12018 ft 317 kts 216°
2026-05-03 23:01 38.33914 -122.64665 11656 ft 312 kts 200°
2026-05-03 23:01 38.31799 -122.65061 11311 ft 306 kts 174°
2026-05-03 23:02 38.29783 -122.64369 10980 ft 297 kts 162°
2026-05-03 23:02 38.27892 -122.63450 10644 ft 289 kts 160°
2026-05-03 23:02 38.26030 -122.62480 10305 ft 283 kts 159°
2026-05-03 23:02 38.24229 -122.61518 9977 ft 279 kts 159°
2026-05-03 23:03 38.22458 -122.60567 9611 ft 275 kts 160°
2026-05-03 23:03 38.20679 -122.59627 9227 ft 270 kts 159°
2026-05-03 23:03 38.18983 -122.58730 8873 ft 267 kts 159°
2026-05-03 23:03 38.17257 -122.57814 8513 ft 264 kts 159°
2026-05-03 23:04 38.15588 -122.56928 8180 ft 263 kts 159°
2026-05-03 23:04 38.13894 -122.56030 8054 ft 261 kts 159°
2026-05-03 23:04 38.12189 -122.55127 8007 ft 263 kts 159°
2026-05-03 23:04 38.10486 -122.54226 7996 ft 264 kts 159°
2026-05-03 23:05 38.08873 -122.52826 7987 ft 269 kts 139°
2026-05-03 23:05 38.07638 -122.51156 7986 ft 270 kts 135°
2026-05-03 23:05 38.06377 -122.49309 7977 ft 270 kts 134°
2026-05-03 23:05 38.05187 -122.47506 7975 ft 270 kts 133°
2026-05-03 23:06 38.03975 -122.45644 7984 ft 270 kts 133°
2026-05-03 23:06 38.02722 -122.43711 7981 ft 270 kts 133°
2026-05-03 23:06 38.01513 -122.41844 7984 ft 270 kts 133°
2026-05-03 23:06 38.00304 -122.39970 7977 ft 270 kts 133°
2026-05-03 23:07 37.99112 -122.38121 7773 ft 271 kts 133°
2026-05-03 23:07 37.97926 -122.36277 7574 ft 269 kts 133°
2026-05-03 23:07 37.96730 -122.34418 7374 ft 267 kts 133°
2026-05-03 23:07 37.95666 -122.32770 7196 ft 266 kts 133°
2026-05-03 23:08 37.94516 -122.30991 7016 ft 265 kts 133°
2026-05-03 23:08 37.93334 -122.29163 6804 ft 264 kts 133°
2026-05-03 23:08 37.92561 -122.27972 6670 ft 265 kts 133°
2026-05-03 23:08 37.91392 -122.26167 6510 ft 265 kts 133°
2026-05-03 23:09 37.90224 -122.24366 6325 ft 263 kts 133°
2026-05-03 23:09 37.89055 -122.22549 6131 ft 261 kts 133°
2026-05-03 23:09 37.87921 -122.20767 5942 ft 259 kts 133°
2026-05-03 23:09 37.86775 -122.18982 5765 ft 260 kts 133°
2026-05-03 23:10 37.85621 -122.17202 5585 ft 262 kts 133°
2026-05-03 23:10 37.84435 -122.15392 5391 ft 262 kts 133°
2026-05-03 23:10 37.83272 -122.13617 5164 ft 265 kts 133°
2026-05-03 23:10 37.82089 -122.11807 4948 ft 260 kts 133°
2026-05-03 23:11 37.80963 -122.10087 4734 ft 258 kts 133°
2026-05-03 23:11 37.79808 -122.08324 4545 ft 260 kts 132°
2026-05-03 23:11 37.78648 -122.06566 4335 ft 260 kts 133°
2026-05-03 23:11 37.77254 -122.04962 4126 ft 253 kts 156°
2026-05-03 23:12 37.75666 -122.04571 4056 ft 248 kts 186°
2026-05-03 23:12 37.73964 -122.05162 4024 ft 249 kts 198°
2026-05-03 23:12 37.72311 -122.05900 4032 ft 251 kts 198°
2026-05-03 23:12 37.70635 -122.06571 4038 ft 251 kts 196°
2026-05-03 23:13 37.68926 -122.07135 3861 ft 252 kts 193°
2026-05-03 23:13 37.67213 -122.07611 3610 ft 251 kts 192°
2026-05-03 23:13 37.65456 -122.08049 3366 ft 249 kts 191°
2026-05-03 23:13 37.63751 -122.08444 3114 ft 247 kts 196°
2026-05-03 23:14 37.62207 -122.09535 2848 ft 245 kts 216°
2026-05-03 23:14 37.60863 -122.10857 2592 ft 245 kts 219°
2026-05-03 23:14 37.59544 -122.12211 2366 ft 244 kts 220°
2026-05-03 23:14 37.58215 -122.13520 2127 ft 239 kts 217°
2026-05-03 23:15 37.56891 -122.14631 2147 ft 217 kts 214°
2026-05-03 23:15 37.55682 -122.15584 2128 ft 191 kts 210°
2026-05-03 23:15 37.54507 -122.16082 2018 ft 166 kts 211°
2026-05-03 23:15 37.53843 -122.17135 1953 ft 150 kts 260°
2026-05-03 23:16 37.54060 -122.18377 1972 ft 152 kts 293°
2026-05-03 23:16 37.54596 -122.19541 1997 ft 154 kts 295°
2026-05-03 23:16 37.55076 -122.20745 2018 ft 154 kts 293°
2026-05-03 23:16 37.55583 -122.21959 2010 ft 154 kts 296°
2026-05-03 23:17 37.56105 -122.23185 2004 ft 156 kts 294°
2026-05-03 23:17 37.56610 -122.24399 1994 ft 154 kts 293°
2026-05-03 23:17 37.57118 -122.25605 1804 ft 147 kts 294°
2026-05-03 23:17 37.57396 -122.26267 1679 ft 137 kts 293°
2026-05-03 23:18 37.57810 -122.27256 1508 ft 131 kts 292°
2026-05-03 23:18 37.58221 -122.28233 1354 ft 125 kts 294°
2026-05-03 23:18 37.58628 -122.29210 1204 ft 125 kts 295°
2026-05-03 23:18 37.59027 -122.30158 1063 ft 125 kts 295°
2026-05-03 23:19 37.59432 -122.31127 905 ft 128 kts 294°
2026-05-03 23:19 37.59838 -122.32094 727 ft 130 kts 295°
2026-05-03 23:19 37.60258 -122.33097 533 ft 131 kts 293°
2026-05-03 23:19 37.60686 -122.34126 389 ft 135 kts 293°
2026-05-03 23:20 37.61143 -122.35204 200 ft 140 kts 292°
2026-05-03 23:20 37.61597 -122.36300 32 ft 135 kts 292°
2026-05-03 23:20 37.61989 -122.37265 22 ft 100 kts 300°
2026-05-03 23:20 37.62228 -122.37861 20 ft 52 kts 277°
2026-05-03 23:21 37.62229 -122.38011 20 ft 9 kts 269°
2026-05-03 23:21 37.62225 -122.38105 20 ft 12 kts 266°
2026-05-03 23:21 37.62178 -122.38198 21 ft 16 kts 211°
2026-05-03 23:21 37.62090 -122.38263 21 ft 0 kts 212°
2026-05-03 23:22 37.62073 -122.38302 20 ft 6 kts 285°
2026-05-03 23:22 37.62072 -122.38395 20 ft 14 kts 250°
2026-05-03 23:22 37.62096 -122.38513 20 ft 17 kts 296°
2026-05-03 23:23 37.62126 -122.38590 20 ft 11 kts 296°
2026-05-03 23:23 37.62170 -122.38698 20 ft 10 kts 296°
2026-05-03 23:23 37.62188 -122.38741 21 ft 9 kts 299°
2026-05-03 23:23 37.62233 -122.38846 20 ft 16 kts 298°
2026-05-03 23:24 37.62259 -122.38982 20 ft 16 kts 251°
2026-05-03 23:24 37.62225 -122.39096 21 ft 9 kts 239°
2026-05-03 23:24 37.62184 -122.39141 20 ft 8 kts 204°
2026-05-03 23:24 37.62116 -122.39182 21 ft 13 kts 206°
2026-05-03 23:25 37.62015 -122.39242 20 ft 14 kts 192°
2026-05-03 23:25 37.61950 -122.39184 20 ft 14 kts 117°
2026-05-03 23:25 37.61899 -122.39066 20 ft 16 kts 118°
2026-05-03 23:25 37.61857 -122.38966 20 ft 8 kts 118°
2026-05-03 23:26 37.61849 -122.38948 22 ft 1 kts 118°
2026-05-03 23:26 37.61840 -122.38926 20 ft 4 kts 117°
2026-05-03 23:26 37.61825 -122.38892 20 ft 0 kts 137°
2026-05-03 23:26 37.61823 -122.38892 23 ft 1 kts 172°
2026-05-03 23:27 37.61805 -122.38895 20 ft 5 kts 194°
2026-05-03 23:27 37.61777 -122.38893 20 ft 4 kts 161°
2026-05-03 23:27 37.61767 -122.38888 20 ft 0 kts 159°